TimeEDT,TemperatureF,Dew PointF,Humidity,Sea Level PressureIn,VisibilityMPH,Wind Direction,Wind SpeedMPH,Gust SpeedMPH,PrecipitationIn,Events,Conditions,WindDirDegrees,DateUTC
12:11 AM,42.8,42.8,100,30.11,2.5,NE,1.2,-,N/A,,Clear,50,2013-09-30 04:11:00
12:12 AM,42.8,42.8,100,30.11,2.0,ENE,1.2,-,N/A,,Clear,60,2013-09-30 04:12:00
12:13 AM,42.8,42.8,100,30.11,1.5,NNE,1.2,-,N/A,,Clear,30,2013-09-30 04:13:00
12:14 AM,42.8,42.8,100,30.11,1.2,Calm,Calm,-,N/A,,Clear,0,2013-09-30 04:14:00
12:15 AM,42.8,42.8,100,30.11,1.2,Calm,Calm,-,N/A,,Clear,0,2013-09-30 04:15:00
12:18 AM,42.8,42.8,100,30.11,1.2,Calm,Calm,-,N/A,,Clear,0,2013-09-30 04:18:00
12:22 AM,42.8,42.8,100,30.11,1.5,Calm,Calm,-,N/A,,Clear,0,2013-09-30 04:22:00
12:23 AM,42.8,42.8,100,30.11,1.8,Calm,Calm,-,N/A,,Clear,0,2013-09-30 04:23:00
12:24 AM,42.8,42.8,100,30.11,2.0,Calm,Calm,-,N/A,,Clear,0,2013-09-30 04:24:00
12:25 AM,42.8,42.8,100,30.11,2.5,Calm,Calm,-,N/A,,Clear,0,2013-09-30 04:25:00
12:26 AM,42.8,42.8,100,30.11,2.0,Calm,Calm,-,N/A,,Clear,0,2013-09-30 04:26:00
12:27 AM,42.8,42.8,100,30.11,1.8,Calm,Calm,-,N/A,,Clear,0,2013-09-30 04:27:00
12:28 AM,44.6,42.8,93,30.11,1.5,Calm,Calm,-,N/A,,Clear,0,2013-09-30 04:28:00
12:29 AM,44.6,42.8,93,30.11,1.2,Calm,Calm,-,N/A,,Clear,0,2013-09-30 04:29:00
12:30 AM,44.6,44.6,100,30.11,1.2,Calm,Calm,-,N/A,,Clear,0,2013-09-30 04:30:00
12:31 AM,44.6,44.6,100,30.11,1.0,Calm,Calm,-,N/A,,Clear,0,2013-09-30 04:31:00
12:32 AM,44.6,44.6,100,30.11,1.0,Calm,Calm,-,N/A,,Clear,0,2013-09-30 04:32:00
12:33 AM,44.6,44.6,100,30.11,1.0,Calm,Calm,-,N/A,,Clear,0,2013-09-30 04:33:00
12:34 AM,44.6,44.6,100,30.11,0.8,Calm,Calm,-,N/A,,Clear,0,2013-09-30 04:34:00
12:36 AM,44.6,44.6,100,30.11,1.0,Calm,Calm,-,N/A,,Clear,0,2013-09-30 04:36:00
12:37 AM,44.6,44.6,100,30.11,1.0,NNW,1.2,-,N/A,,Clear,330,2013-09-30 04:37:00
12:39 AM,44.6,42.8,93,30.11,1.2,Calm,Calm,-,N/A,,Clear,0,2013-09-30 04:39:00
12:40 AM,44.6,42.8,93,30.11,1.5,NW,1.2,-,N/A,,Clear,320,2013-09-30 04:40:00
12:41 AM,44.6,42.8,93,30.11,1.8,NW,1.2,-,N/A,,Clear,310,2013-09-30 04:41:00
12:42 AM,44.6,42.8,93,30.11,2.5,NW,1.2,-,N/A,,Clear,310,2013-09-30 04:42:00
12:43 AM,44.6,42.8,93,30.11,3.0,NW,1.2,-,N/A,,Clear,320,2013-09-30 04:43:00
12:58 AM,44.1,43.7,99,30.13,10.0,NNE,2.3,-,N/A,,Clear,30,2013-09-30 04:58:00
1:42 AM,42.8,42.8,100,30.11,2.5,NNE,2.3,-,N/A,,Clear,20,2013-09-30 05:42:00
1:43 AM,42.8,42.8,100,30.11,2.0,NNE,2.3,-,N/A,,Clear,20,2013-09-30 05:43:00
1:51 AM,42.8,41.0,93,30.11,2.5,North,2.3,-,N/A,,Clear,350,2013-09-30 05:51:00
1:52 AM,42.8,41.0,93,30.11,4.0,NNW,2.3,-,N/A,,Clear,340,2013-09-30 05:52:00
1:58 AM,42.1,41.7,99,30.13,10.0,NNE,1.2,-,N/A,,Clear,20,2013-09-30 05:58:00
2:58 AM,41.2,40.8,99,30.12,4.0,North,1.2,-,N/A,,Clear,350,2013-09-30 06:58:00
3:16 AM,39.2,39.2,100,30.09,2.5,NNE,2.3,-,N/A,,Clear,20,2013-09-30 07:16:00
3:17 AM,39.2,39.2,100,30.09,1.8,NNE,2.3,-,N/A,,Clear,20,2013-09-30 07:17:00
3:18 AM,39.2,39.2,100,30.09,1.2,NNE,2.3,-,N/A,,Clear,20,2013-09-30 07:18:00
3:19 AM,39.2,39.2,100,30.09,1.0,NNE,2.3,-,N/A,,Clear,20,2013-09-30 07:19:00
3:20 AM,39.2,39.2,100,30.09,1.0,North,2.3,-,N/A,,Clear,10,2013-09-30 07:20:00
3:21 AM,39.2,39.2,100,30.09,0.8,North,2.3,-,N/A,,Clear,10,2013-09-30 07:21:00
3:23 AM,39.2,39.2,100,30.09,0.8,North,2.3,-,N/A,,Clear,10,2013-09-30 07:23:00
3:25 AM,39.2,39.2,100,30.09,0.8,North,2.3,-,N/A,,Clear,10,2013-09-30 07:25:00
3:26 AM,39.2,39.2,100,30.09,1.0,North,2.3,-,N/A,,Clear,10,2013-09-30 07:26:00
3:27 AM,41.0,39.2,93,30.09,1.2,North,2.3,-,N/A,,Clear,10,2013-09-30 07:27:00
3:28 AM,41.0,39.2,93,30.09,1.5,North,2.3,-,N/A,,Clear,10,2013-09-30 07:28:00
3:29 AM,41.0,41.0,100,30.09,2.0,NNE,2.3,-,N/A,,Clear,20,2013-09-30 07:29:00
3:30 AM,41.0,41.0,100,30.09,2.5,NNE,2.3,-,N/A,,Clear,20,2013-09-30 07:30:00
3:31 AM,41.0,41.0,100,30.09,4.0,NNE,2.3,-,N/A,,Clear,30,2013-09-30 07:31:00
3:37 AM,42.8,41.0,93,30.09,2.5,ENE,3.5,-,N/A,,Clear,60,2013-09-30 07:37:00
3:40 AM,42.8,42.8,100,30.09,2.0,ENE,2.3,-,N/A,,Clear,60,2013-09-30 07:40:00
3:46 AM,41.0,41.0,100,30.09,1.8,NNE,1.2,-,N/A,,Clear,20,2013-09-30 07:46:00
3:47 AM,41.0,41.0,100,30.09,1.5,NNE,2.3,-,N/A,,Clear,20,2013-09-30 07:47:00
3:48 AM,41.0,41.0,100,30.09,1.2,NNE,2.3,-,N/A,,Clear,20,2013-09-30 07:48:00
3:49 AM,41.0,41.0,100,30.09,1.0,NNE,2.3,-,N/A,,Clear,20,2013-09-30 07:49:00
3:50 AM,41.0,41.0,100,30.09,1.0,NNE,2.3,-,N/A,,Clear,30,2013-09-30 07:50:00
3:51 AM,41.0,41.0,100,30.09,0.8,NNE,2.3,-,N/A,,Clear,30,2013-09-30 07:51:00
3:52 AM,41.0,41.0,100,30.09,0.8,NE,1.2,-,N/A,,Clear,40,2013-09-30 07:52:00
3:53 AM,41.0,39.2,93,30.09,0.5,NE,1.2,-,N/A,Fog,Fog,40,2013-09-30 07:53:00
3:58 AM,40.1,39.9,99,30.11,0.5,NE,1.2,-,N/A,Fog,Fog,40,2013-09-30 07:58:00
4:03 AM,39.2,39.2,100,30.09,0.8,East,2.3,-,N/A,,Clear,100,2013-09-30 08:03:00
4:05 AM,39.2,39.2,100,30.09,0.8,East,2.3,-,N/A,,Clear,100,2013-09-30 08:05:00
4:06 AM,41.0,39.2,93,30.09,0.8,East,2.3,-,N/A,,Clear,100,2013-09-30 08:06:00
4:07 AM,41.0,41.0,100,30.09,1.0,East,1.2,-,N/A,,Clear,90,2013-09-30 08:07:00
4:08 AM,41.0,41.0,100,30.09,1.0,East,1.2,-,N/A,,Clear,80,2013-09-30 08:08:00
4:09 AM,41.0,41.0,100,30.09,1.5,ENE,1.2,-,N/A,,Clear,60,2013-09-30 08:09:00
4:10 AM,41.0,41.0,100,30.09,2.0,ENE,1.2,-,N/A,,Clear,60,2013-09-30 08:10:00
4:11 AM,41.0,41.0,100,30.09,4.0,ENE,2.3,-,N/A,,Clear,60,2013-09-30 08:11:00
4:58 AM,40.1,39.9,99,30.11,10.0,NNE,1.2,-,N/A,,Clear,30,2013-09-30 08:58:00
5:06 AM,39.2,39.2,100,30.09,2.5,NNE,2.3,-,N/A,,Clear,20,2013-09-30 09:06:00
5:07 AM,39.2,39.2,100,30.09,1.8,North,2.3,-,N/A,,Clear,10,2013-09-30 09:07:00
5:08 AM,39.2,39.2,100,30.09,1.5,North,2.3,-,N/A,,Clear,10,2013-09-30 09:08:00
5:09 AM,39.2,39.2,100,30.09,1.2,North,2.3,-,N/A,,Clear,10,2013-09-30 09:09:00
5:10 AM,39.2,39.2,100,30.09,1.0,North,2.3,-,N/A,,Clear,10,2013-09-30 09:10:00
5:11 AM,39.2,39.2,100,30.09,1.0,North,2.3,-,N/A,,Clear,10,2013-09-30 09:11:00
5:12 AM,39.2,39.2,100,30.09,0.8,North,2.3,-,N/A,,Clear,10,2013-09-30 09:12:00
5:13 AM,39.2,39.2,100,30.09,0.8,North,2.3,-,N/A,,Clear,10,2013-09-30 09:13:00
5:32 AM,39.2,39.2,100,30.09,1.0,Calm,Calm,-,N/A,,Clear,0,2013-09-30 09:32:00
5:33 AM,39.2,39.2,100,30.09,1.0,Calm,Calm,-,N/A,,Clear,0,2013-09-30 09:33:00
5:34 AM,39.2,39.2,100,30.09,1.2,Calm,Calm,-,N/A,,Clear,0,2013-09-30 09:34:00
5:35 AM,39.2,39.2,100,30.09,1.2,Calm,Calm,-,N/A,,Clear,0,2013-09-30 09:35:00
5:36 AM,39.2,39.2,100,30.09,1.5,Calm,Calm,-,N/A,,Clear,0,2013-09-30 09:36:00
5:37 AM,39.2,39.2,100,30.09,1.8,Calm,Calm,-,N/A,,Clear,0,2013-09-30 09:37:00
5:40 AM,39.2,39.2,100,30.09,2.0,Calm,Calm,-,N/A,,Clear,0,2013-09-30 09:40:00
5:43 AM,39.2,39.2,100,30.09,2.5,North,-9999.0,-,N/A,,Clear,0,2013-09-30 09:43:00
5:47 AM,39.2,39.2,100,30.09,3.0,NNE,1.2,-,N/A,,Clear,20,2013-09-30 09:47:00
5:56 AM,41.0,39.2,93,30.09,10.0,NE,2.3,-,N/A,,Partly Cloudy,50,2013-09-30 09:56:00
5:58 AM,41.0,39.2,93,30.12,10.0,ENE,2.3,-,N/A,,Partly Cloudy,60,2013-09-30 09:58:00
6:23 AM,39.2,39.2,100,30.10,10.0,North,2.3,-,N/A,,Mostly Cloudy,360,2013-09-30 10:23:00
6:29 AM,39.2,39.2,100,30.09,6.0,NNE,2.3,-,N/A,,Scattered Clouds,30,2013-09-30 10:29:00
6:33 AM,39.2,39.2,100,30.09,2.5,NE,2.3,-,N/A,,Scattered Clouds,40,2013-09-30 10:33:00
6:34 AM,39.2,39.2,100,30.09,1.8,NE,2.3,-,N/A,,Scattered Clouds,40,2013-09-30 10:34:00
6:35 AM,39.2,39.2,100,30.09,1.0,NE,2.3,-,N/A,,Mist,40,2013-09-30 10:35:00
6:36 AM,39.2,39.2,100,30.09,0.8,NE,2.3,-,N/A,,Mist,40,2013-09-30 10:36:00
6:37 AM,39.2,39.2,100,30.09,0.5,NNE,2.3,-,N/A,Fog,Fog,30,2013-09-30 10:37:00
6:38 AM,39.2,39.2,100,30.09,0.5,NNE,2.3,-,N/A,Fog,Fog,20,2013-09-30 10:38:00
6:40 AM,39.2,39.2,100,30.09,0.5,NNE,2.3,-,N/A,Fog,Fog,20,2013-09-30 10:40:00
6:41 AM,39.2,39.2,100,30.09,0.2,NNE,2.3,-,N/A,Fog,Fog,20,2013-09-30 10:41:00
6:45 AM,39.2,39.2,100,30.10,0.5,North,2.3,-,N/A,Fog,Fog,360,2013-09-30 10:45:00
6:46 AM,39.2,39.2,100,30.10,0.5,North,2.3,-,N/A,Fog,Fog,360,2013-09-30 10:46:00
6:47 AM,39.2,39.2,100,30.10,0.5,North,3.5,-,N/A,Fog,Fog,360,2013-09-30 10:47:00
6:48 AM,39.2,39.2,100,30.10,0.8,North,3.5,-,N/A,,Mist,350,2013-09-30 10:48:00
6:50 AM,39.2,39.2,100,30.10,1.2,NW,4.6,-,N/A,,Partly Cloudy,320,2013-09-30 10:50:00
6:51 AM,39.2,39.2,100,30.10,1.5,WNW,4.6,-,N/A,,Partly Cloudy,300,2013-09-30 10:51:00
6:52 AM,39.2,39.2,100,30.10,2.5,WNW,4.6,-,N/A,,Partly Cloudy,300,2013-09-30 10:52:00
6:53 AM,39.2,39.2,100,30.10,3.0,NW,4.6,-,N/A,,Partly Cloudy,310,2013-09-30 10:53:00
6:58 AM,39.2,39.0,99,30.12,9.0,North,2.3,-,N/A,,Scattered Clouds,10,2013-09-30 10:58:00
7:00 AM,39.2,39.2,100,30.10,0.2,North,2.3,-,N/A,Fog,Fog,10,2013-09-30 11:00:00
7:25 AM,42.8,42.8,100,30.09,0.2,North,3.5,-,N/A,Fog,Fog,350,2013-09-30 11:25:00
7:27 AM,42.8,42.8,100,30.10,0.2,North,3.5,-,N/A,Fog,Fog,350,2013-09-30 11:27:00
7:33 AM,42.8,42.8,100,30.09,0.2,NNE,4.6,-,N/A,Fog,Fog,30,2013-09-30 11:33:00
7:38 AM,42.8,42.8,100,30.09,0.2,NNE,4.6,-,N/A,Fog,Fog,30,2013-09-30 11:38:00
7:39 AM,42.8,42.8,100,30.09,0.2,NNE,4.6,-,N/A,Fog,Fog,30,2013-09-30 11:39:00
7:41 AM,42.8,42.8,100,30.09,0.5,NNE,4.6,-,N/A,Fog,Fog,30,2013-09-30 11:41:00
7:42 AM,42.8,42.8,100,30.09,0.5,NE,3.5,-,N/A,Fog,Fog,40,2013-09-30 11:42:00
7:58 AM,43.9,43.7,99,30.11,1.2,ENE,3.5,-,N/A,,Mostly Cloudy,60,2013-09-30 11:58:00
8:03 AM,44.6,44.6,100,30.10,2.0,ENE,2.3,-,N/A,,Scattered Clouds,60,2013-09-30 12:03:00
8:10 AM,44.6,44.6,100,30.10,3.0,NE,2.3,-,N/A,,Scattered Clouds,50,2013-09-30 12:10:00
8:58 AM,49.1,48.9,99,30.12,10.0,NNE,3.5,-,N/A,,Partly Cloudy,20,2013-09-30 12:58:00
9:58 AM,55.4,53.6,94,30.10,10.0,NNE,3.5,-,N/A,,Clear,20,2013-09-30 13:58:00
10:58 AM,62.1,52.2,70,30.09,10.0,Variable,2.3,-,N/A,,Clear,0,2013-09-30 14:58:00
11:58 AM,66.2,51.6,59,30.06,10.0,West,4.6,-,N/A,,Clear,260,2013-09-30 15:58:00
12:58 PM,68.4,50.4,53,30.05,10.0,Variable,5.8,-,N/A,,Clear,0,2013-09-30 16:58:00
1:58 PM,70.9,48.4,45,30.01,10.0,Variable,4.6,-,N/A,,Clear,0,2013-09-30 17:58:00
2:58 PM,71.2,49.5,46,30.01,10.0,NNW,5.8,-,N/A,,Clear,340,2013-09-30 18:58:00
3:58 PM,72.0,47.5,42,30.00,10.0,Variable,3.5,-,N/A,,Clear,0,2013-09-30 19:58:00
4:58 PM,71.1,51.3,49,29.98,10.0,ESE,4.6,-,N/A,,Clear,110,2013-09-30 20:58:00
5:58 PM,69.1,52.0,54,29.99,10.0,Calm,Calm,-,N/A,,Clear,0,2013-09-30 21:58:00
6:58 PM,55.4,54.5,97,29.99,10.0,Calm,Calm,-,N/A,,Clear,0,2013-09-30 22:58:00
7:58 PM,53.6,53.1,98,29.99,10.0,NE,3.5,-,N/A,,Clear,50,2013-09-30 23:58:00
8:31 PM,50.0,50.0,100,29.98,10.0,NE,2.3,-,N/A,,Clear,40,2013-10-01 00:31:00
8:58 PM,51.3,51.1,99,30.00,10.0,NE,2.3,-,N/A,,Mostly Cloudy,50,2013-10-01 00:58:00
9:58 PM,50.0,50.0,100,30.00,10.0,NNE,2.3,-,N/A,,Partly Cloudy,30,2013-10-01 01:58:00
10:58 PM,49.1,48.9,99,30.00,10.0,Calm,Calm,-,N/A,,Clear,0,2013-10-01 02:58:00
10:59 PM,50.0,48.2,94,29.99,0.8,Calm,Calm,-,N/A,,Clear,0,2013-10-01 02:59:00
11:00 PM,48.2,48.2,100,29.98,10.0,Calm,Calm,-,N/A,,Clear,0,2013-10-01 03:00:00
11:58 PM,47.1,46.9,99,30.00,10.0,Calm,Calm,-,N/A,,Clear,0,2013-10-01 03:58:00